START_TIME,STEP,MOV.,H8,t_acc.,H43,t_acc.,M25,t_acc.,H9,t_acc.
1979-07-01 15:00:30.450 ,1,0,0.,12.0,0.,12.0,0.,12.0,0.,12.0
1979-07-01 15:00:42.450 ,1,0,0.,12.0,0.,12.0,0.,12.0,0.,12.0
1979-07-01 15:00:54.450 ,2,0,0.,12.0,0.,12.0,0.,12.0,0.,12.0
1979-07-01 15:01:06.450 ,2,0,0.,12.0,0.,12.0,0.,12.0,0.,12.0
1979-07-01 15:01:18.450 ,2,0,0.,12.0,0.,12.0,0.,12.0,0.,12.0
1979-07-01 15:01:30.450 ,2,0,0.,12.0,0.,12.0,0.,12.0,0.,12.0
1979-07-01 15:01:42.450 ,3,0,0.,12.0,0.,12.0,0.,12.0,0.,12.0
1979-07-01 15:01:54.450 ,3,0,0.,12.0,0.,12.0,0.,12.0,0.,12.0
1979-07-01 15:02:06.450 ,3,0,0.,12.0,0.,12.0,0.,12.0,0.,12.0
1979-07-01 15:02:18.450 ,3,0,0.,12.0,0.,12.0,0.,12.0,0.,12.0
1979-07-01 15:02:30.450 ,4,0,0.,12.0,0.,12.0,0.,12.0,0.,12.0
1979-07-01 15:02:42.450 ,4,0,0.,12.0,0.,12.0,0.,12.0,0.,12.0
1979-07-01 15:02:54.450 ,4,0,0.,12.0,0.,12.0,0.,12.0,0.,12.0
1979-07-01 15:03:06.450 ,4,0,0.,12.0,0.,12.0,0.,12.0,0.,12.0
1979-07-01 15:03:18.450 ,5,0,0.,12.0,0.,12.0,0.,12.0,0.,12.0
1979-07-01 15:03:30.450 ,5,0,0.,12.0,0.,12.0,0.,12.0,0.,12.0
1979-07-01 15:03:42.450 ,5,0,0.,12.0,0.,12.0,0.,12.0,0.,12.0
1979-07-01 15:03:54.450 ,5,0,0.,12.0,0.,12.0,0.,12.0,0.,12.0
1979-07-01 15:04:06.450 ,6,0,0.,12.0,0.,12.0,0.,12.0,0.,12.0
1979-07-01 15:04:18.450 ,6,0,0.,12.0,0.,12.0,0.,12.0,0.,12.0
1979-07-01 15:04:30.450 ,6,0,0.,12.0,0.,12.0,0.,12.0,0.,12.0
1979-07-01 15:04:42.450 ,6,0,0.,12.0,0.,12.0,0.,12.0,0.,12.0
1979-07-01 15:04:54.450 ,7,0,0.,12.0,0.,12.0,0.,12.0,0.,12.0
1979-07-01 15:05:06.450 ,7,0,0.,12.0,0.,12.0,0.,12.0,0.,12.0
1979-07-01 15:05:18.450 ,7,0,0.,12.0,0.,12.0,0.,12.0,0.,12.0
1979-07-01 15:05:30.450 ,7,0,0.,12.0,0.,12.0,0.,12.0,0.,12.0
1979-07-01 15:05:42.450 ,7,0,0.,12.0,0.,12.0,0.,12.0,0.,12.0
1979-07-01 15:05:54.450 ,7,0,0.,12.0,0.,12.0,0.,12.0,0.,12.0
1979-07-01 15:06:06.450 ,7,0,0.,12.0,0.,12.0,0.,12.0,0.,12.0
1979-07-01 15:06:18.450 ,7,0,0.,12.0,0.,12.0,0.,12.0,0.,12.0
1979-07-01 15:06:30.450 ,6,0,0.,12.0,0.,12.0,0.,12.0,0.,12.0
1979-07-01 15:06:42.450 ,6,0,0.,12.0,0.,12.0,0.,12.0,0.,12.0
1979-07-01 15:06:54.450 ,6,0,0.,12.0,0.,12.0,0.,12.0,0.,12.0
1979-07-01 15:07:06.450 ,6,0,0.,12.0,0.,12.0,0.,12.0,0.,12.0
1979-07-01 15:07:18.450 ,5,0,0.,12.0,0.,12.0,0.,12.0,0.,12.0
1979-07-01 15:07:30.450 ,5,0,0.,12.0,0.,12.0,0.,12.0,0.,12.0
1979-07-01 15:07:42.450 ,5,0,0.,12.0,0.,12.0,0.,12.0,0.,12.0
1979-07-01 15:07:54.450 ,5,0,0.,12.0,0.,12.0,0.,12.0,0.,12.0
1979-07-01 15:08:06.450 ,4,0,0.,12.0,0.,12.0,0.,12.0,0.,12.0
1979-07-01 15:08:18.450 ,4,0,0.,12.0,0.,12.0,0.,12.0,0.,12.0
1979-07-01 15:08:30.450 ,4,0,0.,12.0,0.,12.0,0.,12.0,0.,12.0
1979-07-01 15:08:42.450 ,4,0,0.,12.0,0.,12.0,0.,12.0,0.,12.0
1979-07-01 15:08:54.450 ,3,0,0.,12.0,0.,12.0,0.,12.0,0.,12.0
1979-07-01 15:09:06.450 ,3,0,0.,12.0,0.,12.0,0.,12.0,0.,12.0
1979-07-01 15:09:18.450 ,3,0,0.,12.0,0.,12.0,0.,12.0,0.,12.0
1979-07-01 15:09:30.450 ,3,0,0.,12.0,0.,12.0,0.,12.0,0.,12.0
1979-07-01 15:09:42.450 ,2,0,0.,12.0,0.,12.0,0.,12.0,0.,12.0
1979-07-01 15:09:54.450 ,2,0,0.,12.0,0.,12.0,0.,12.0,0.,12.0
1979-07-01 15:10:06.450 ,2,0,0.,12.0,0.,12.0,0.,12.0,0.,12.0
1979-07-01 15:10:18.450 ,2,0,0.,12.0,0.,12.0,0.,12.0,0.,12.0
1979-07-01 15:10:30.450 ,1,0,0.,12.0,0.,12.0,0.,12.0,0.,12.0
1979-07-01 15:10:42.450 ,1,0,0.,12.0,0.,12.0,0.,12.0,0.,12.0
1979-07-01 15:10:54.450 ,1,0,0.,12.0,0.,12.0,0.,12.0,0.,12.0
1979-07-01 15:11:06.450 ,1,0,0.,12.0,0.,12.0,0.,12.0,0.,12.0
1979-07-01 15:11:18.450 ,0,0,0.,12.0,0.,12.0,0.,12.0,0.,12.0
1979-07-01 15:11:30.450 ,0,0,0.,12.0,0.,12.0,0.,12.0,0.,12.0
1979-07-01 15:11:42.450 ,0,0,0.,12.0,0.,12.0,0.,12.0,0.,12.0
1979-07-01 15:11:54.450 ,0,0,0.,12.0,0.,12.0,0.,12.0,0.,12.0
1979-07-01 15:12:06.450 ,0,0,0.,12.0,0.,12.0,0.,12.0,0.,12.0
1979-07-01 15:12:18.450 ,0,0,0.,12.0,0.,12.0,0.,12.0,0.,12.0
1979-07-01 15:12:30.450 ,0,0,0.,12.0,0.,12.0,0.,12.0,0.,12.0
1979-07-01 15:12:42.450 ,0,0,0.,12.0,0.,12.0,0.,12.0,0.,12.0
1979-07-01 15:12:54.450 ,1,0,0.,12.0,0.,12.0,0.,12.0,0.,12.0
1979-07-01 15:13:06.450 ,1,0,0.,12.0,0.,12.0,0.,12.0,0.,12.0
1979-07-01 15:13:18.450 ,1,0,0.,12.0,0.,12.0,0.,12.0,0.,12.0
1979-07-01 15:13:30.450 ,1,0,0.,12.0,0.,12.0,0.,12.0,0.,12.0
1979-07-01 15:13:42.450 ,2,0,0.,12.0,0.,12.0,0.,12.0,0.,12.0
1979-07-01 15:13:54.450 ,2,0,0.,12.0,0.,12.0,0.,12.0,0.,12.0
1979-07-01 15:14:06.450 ,2,0,0.,12.0,0.,12.0,0.,12.0,0.,12.0
1979-07-01 15:14:18.450 ,2,0,0.,12.0,0.,12.0,0.,12.0,0.,12.0
1979-07-01 15:14:30.450 ,3,0,0.,12.0,0.,12.0,0.,12.0,0.,12.0
1979-07-01 15:14:42.450 ,3,0,0.,12.0,0.,12.0,0.,12.0,0.,12.0
1979-07-01 15:14:54.450 ,3,0,0.,12.0,0.,12.0,0.,12.0,0.,12.0
1979-07-01 15:15:06.450 ,3,0,0.,12.0,0.,12.0,0.,12.0,0.,12.0
1979-07-01 15:15:18.450 ,4,0,,0,,0,,0,,0
1979-07-01 15:15:30.450 ,4,0,0.,12.0,0.,12.0,0.,12.0,0.,12.0
1979-07-01 15:15:42.450 ,4,0,0.,12.0,0.,12.0,0.,12.0,0.,12.0
1979-07-01 15:15:54.450 ,4,0,0.,12.0,0.,12.0,0.,12.0,0.,12.0
1979-07-01 15:16:06.450 ,5,0,0.,12.0,0.,12.0,0.,12.0,0.,12.0
1979-07-01 15:16:18.450 ,5,0,0.,12.0,0.,12.0,0.,12.0,0.,12.0
1979-07-01 15:16:30.450 ,5,0,0.,12.0,0.,12.0,0.,12.0,0.,12.0
1979-07-01 15:16:42.450 ,5,0,0.,12.0,0.,12.0,0.,12.0,0.,12.0
1979-07-01 15:16:54.450 ,6,0,0.,12.0,0.,12.0,0.,12.0,0.,12.0
1979-07-01 15:17:06.450 ,6,0,0.,12.0,0.,12.0,0.,12.0,0.,12.0
1979-07-01 15:17:18.450 ,6,0,0.,12.0,0.,12.0,0.,12.0,0.,12.0
1979-07-01 15:17:30.450 ,6,0,0.,12.0,0.,12.0,0.,12.0,0.,12.0
1979-07-01 15:17:42.450 ,7,0,0.,12.0,0.,12.0,0.,12.0,0.,12.0
1979-07-01 15:17:54.450 ,7,0,0.,12.0,0.,12.0,0.,12.0,0.,12.0
1979-07-01 15:18:06.450 ,7,0,0.,12.0,0.,12.0,0.,12.0,0.,12.0
1979-07-01 15:18:18.450 ,7,0,0.,12.0,0.,12.0,0.,12.0,0.,12.0
1979-07-01 15:18:30.450 ,7,0,0.,12.0,0.,12.0,0.,12.0,0.,12.0
1979-07-01 15:18:42.450 ,7,0,0.,12.0,0.,12.0,0.,12.0,0.,12.0
1979-07-01 15:18:54.450 ,7,0,0.,12.0,0.,12.0,0.,12.0,0.,12.0
1979-07-01 15:19:06.450 ,7,0,0.,12.0,0.,12.0,0.,12.0,0.,12.0
1979-07-01 15:19:18.450 ,6,0,0.,12.0,0.,12.0,0.,12.0,0.,12.0
1979-07-01 15:19:30.450 ,6,0,0.,12.0,0.,12.0,0.,12.0,0.,12.0
1979-07-01 15:19:42.450 ,6,0,0.,12.0,0.,12.0,0.,12.0,0.,12.0
1979-07-01 15:19:54.450 ,6,0,0.,12.0,0.,12.0,0.,12.0,0.,12.0
1979-07-01 15:20:06.450 ,5,0,0.,12.0,0.,12.0,0.,12.0,0.,12.0
1979-07-01 15:20:18.450 ,5,0,0.,12.0,0.,12.0,0.,12.0,0.,12.0
1979-07-01 15:20:30.450 ,5,0,0.,12.0,0.,12.0,0.,12.0,0.,12.0
1979-07-01 15:20:42.450 ,5,0,0.,12.0,0.,12.0,0.,12.0,0.,12.0
1979-07-01 15:20:54.450 ,4,0,0.,12.0,0.,12.0,0.,12.0,0.,12.0
1979-07-01 15:21:06.450 ,4,0,0.,12.0,0.,12.0,0.,12.0,0.,12.0
1979-07-01 15:21:18.450 ,4,0,0.,12.0,0.,12.0,0.,12.0,0.,12.0
1979-07-01 15:21:30.450 ,4,0,0.,12.0,0.,12.0,0.,12.0,0.,12.0
1979-07-01 15:21:42.450 ,3,0,0.,12.0,0.,12.0,0.,12.0,0.,12.0
1979-07-01 15:21:54.450 ,3,0,0.,12.0,0.,12.0,0.,12.0,0.,12.0
1979-07-01 15:22:06.450 ,3,0,0.,12.0,0.,12.0,0.,12.0,0.,12.0
1979-07-01 15:22:18.450 ,3,0,0.,12.0,0.,12.0,0.,12.0,0.,12.0
1979-07-01 15:22:30.450 ,2,0,0.,12.0,0.,12.0,0.,12.0,0.,12.0
1979-07-01 15:22:42.450 ,2,0,0.,12.0,0.,12.0,0.,12.0,0.,12.0
1979-07-01 15:22:54.450 ,2,0,0.,12.0,0.,12.0,0.,12.0,0.,12.0
1979-07-01 15:23:06.450 ,2,0,0.,12.0,0.,12.0,0.,12.0,0.,12.0
1979-07-01 15:23:18.450 ,1,0,0.,12.0,0.,12.0,0.,12.0,0.,12.0
1979-07-01 15:23:30.450 ,1,0,0.,12.0,0.,12.0,0.,12.0,0.,12.0
1979-07-01 15:23:42.450 ,1,0,0.,12.0,0.,12.0,0.,12.0,0.,12.0
1979-07-01 15:23:54.450 ,1,0,0.,12.0,0.,12.0,0.,12.0,0.,12.0
1979-07-01 15:24:06.450 ,0,0,0.,12.0,0.,12.0,0.,12.0,0.,12.0
1979-07-01 15:24:18.450 ,0,0,0.,12.0,0.,12.0,0.,12.0,0.,12.0
1979-07-01 15:24:30.450 ,0,0,0.,12.0,0.,12.0,0.,12.0,0.,12.0
1979-07-01 15:24:42.450 ,0,0,0.,12.0,0.,12.0,0.,12.0,0.,12.0
1979-07-01 15:24:55.650 ,0,0,0.,12.0,0.,12.0,0.,12.0,0.,12.0
1979-07-01 15:25:07.650 ,0,0,0.,12.0,0.,12.0,0.,12.0,0.,12.0
1979-07-01 15:25:18.450 ,0,0,0.,12.0,0.,12.0,0.,12.0,0.,12.0
1979-07-01 15:25:30.450 ,0,0,0.,12.0,0.,12.0,0.,12.0,0.,12.0
1979-07-01 15:25:42.450 ,1,0,0.,12.0,0.,12.0,0.,12.0,0.,12.0
1979-07-01 15:25:54.450 ,1,0,0.,12.0,0.,12.0,0.,12.0,0.,12.0
1979-07-01 15:26:06.450 ,1,0,0.,12.0,0.,12.0,0.,12.0,0.,12.0
1979-07-01 15:26:18.450 ,1,0,0.,12.0,0.,12.0,0.,12.0,0.,12.0
1979-07-01 15:26:30.450 ,2,0,0.,12.0,0.,12.0,0.,12.0,0.,12.0
1979-07-01 15:26:42.450 ,2,0,0.,12.0,0.,12.0,0.,12.0,0.,12.0
1979-07-01 15:26:54.450 ,2,0,0.,12.0,0.,12.0,0.,12.0,0.,12.0
1979-07-01 15:27:06.450 ,2,0,1.,12.0,0.,12.0,0.,12.0,0.,12.0
1979-07-01 15:27:18.450 ,3,0,0.,12.0,0.,12.0,0.,12.0,0.,12.0
1979-07-01 15:27:30.450 ,3,0,0.,12.0,0.,12.0,0.,12.0,0.,12.0
1979-07-01 15:27:42.450 ,3,0,0.,12.0,0.,12.0,0.,12.0,0.,12.0
1979-07-01 15:27:54.450 ,3,0,0.,12.0,0.,12.0,0.,12.0,0.,12.0
1979-07-01 15:28:06.450 ,4,0,0.,12.0,0.,12.0,0.,12.0,0.,12.0
1979-07-01 15:28:18.450 ,4,0,0.,12.0,0.,12.0,0.,12.0,0.,12.0
1979-07-01 15:28:30.450 ,4,0,0.,12.0,0.,12.0,0.,12.0,0.,12.0
1979-07-01 15:28:42.450 ,4,0,0.,12.0,0.,12.0,0.,12.0,0.,12.0
1979-07-01 15:28:54.450 ,5,0,0.,12.0,0.,12.0,0.,12.0,0.,12.0
1979-07-01 15:29:06.450 ,5,0,0.,12.0,0.,12.0,0.,12.0,0.,12.0
1979-07-01 15:29:18.450 ,5,0,0.,12.0,0.,12.0,0.,12.0,0.,12.0
1979-07-01 15:29:30.450 ,5,0,0.,12.0,0.,12.0,0.,12.0,0.,12.0
1979-07-01 15:29:42.450 ,6,0,0.,12.0,0.,12.0,0.,12.0,0.,12.0
1979-07-01 15:29:54.450 ,6,0,0.,12.0,0.,12.0,0.,12.0,0.,12.0
1979-07-01 15:30:06.450 ,6,0,0.,12.0,0.,12.0,0.,12.0,0.,12.0
1979-07-01 15:30:18.450 ,6,0,0.,12.0,0.,12.0,0.,12.0,0.,12.0
1979-07-01 15:30:30.450 ,7,0,0.,12.0,0.,12.0,0.,12.0,0.,12.0
1979-07-01 15:30:42.450 ,7,0,0.,12.0,0.,12.0,0.,12.0,0.,12.0
1979-07-01 15:30:54.450 ,7,0,0.,12.0,0.,12.0,0.,12.0,0.,12.0
1979-07-01 15:31:06.450 ,7,0,0.,12.0,0.,12.0,0.,12.0,0.,12.0
1979-07-01 15:31:18.450 ,3,1,0.,12.0,0.,12.0,0.,12.0,0.,12.0
1979-07-01 15:31:30.450 ,3,1,0.,12.0,0.,12.0,0.,12.0,0.,12.0
1979-07-01 15:31:42.450 ,0,1,0.,12.0,0.,12.0,0.,12.0,0.,12.0
1979-07-01 15:31:54.450 ,0,1,0.,12.0,0.,12.0,0.,12.0,0.,12.0
1979-07-01 15:32:06.450 ,4,1,0.,12.0,0.,12.0,0.,12.0,0.,12.0
1979-07-01 15:32:18.450 ,4,1,0.,12.0,0.,12.0,0.,12.0,0.,12.0
1979-07-01 15:32:30.450 ,7,1,0.,12.0,0.,12.0,0.,12.0,0.,12.0
1979-07-01 15:32:42.450 ,7,1,0.,12.0,0.,12.0,0.,12.0,0.,12.0
1979-07-01 15:32:54.450 ,3,1,0.,12.0,0.,12.0,0.,12.0,0.,12.0
1979-07-01 15:33:06.450 ,3,1,0.,12.0,0.,12.0,0.,12.0,0.,12.0
1979-07-01 15:33:18.450 ,0,1,0.,12.0,0.,12.0,0.,12.0,0.,12.0
1979-07-01 15:33:30.450 ,0,1,0.,12.0,0.,12.0,0.,12.0,0.,12.0
1979-07-01 15:33:42.450 ,4,1,0.,12.0,0.,12.0,0.,12.0,0.,12.0
1979-07-01 15:33:54.450 ,4,1,0.,12.0,0.,12.0,0.,12.0,0.,12.0
1979-07-01 15:34:06.450 ,7,1,0.,12.0,0.,12.0,0.,12.0,0.,12.0
1979-07-01 15:34:18.450 ,7,1,0.,12.0,0.,12.0,0.,12.0,0.,12.0
1979-07-01 15:34:30.450 ,3,1,0.,12.0,0.,12.0,0.,12.0,0.,12.0
1979-07-01 15:34:42.450 ,3,1,1.,12.0,0.,12.0,0.,12.0,0.,12.0
1979-07-01 15:34:54.450 ,0,1,0.,12.0,0.,12.0,0.,12.0,0.,12.0
1979-07-01 15:35:06.450 ,0,1,0.,12.0,0.,12.0,0.,12.0,0.,12.0
1979-07-01 15:35:18.450 ,4,1,0.,12.0,0.,12.0,0.,12.0,0.,12.0
1979-07-01 15:35:30.450 ,4,1,0.,12.0,0.,12.0,0.,12.0,0.,12.0
1979-07-01 15:35:42.450 ,7,1,0.,12.0,0.,12.0,0.,12.0,0.,12.0
1979-07-01 15:35:54.450 ,7,1,0.,12.0,0.,12.0,0.,12.0,0.,12.0
1979-07-01 15:36:06.450 ,3,1,0.,12.0,0.,12.0,0.,12.0,0.,12.0
1979-07-01 15:36:18.450 ,3,1,0.,12.0,0.,12.0,0.,12.0,0.,12.0
1979-07-01 15:36:30.450 ,0,1,0.,12.0,0.,12.0,0.,12.0,0.,12.0
1979-07-01 15:36:42.450 ,0,1,0.,12.0,0.,12.0,0.,12.0,0.,12.0
1979-07-01 15:36:54.450 ,4,1,0.,12.0,0.,12.0,0.,12.0,0.,12.0
1979-07-01 15:37:06.450 ,4,1,0.,12.0,0.,12.0,0.,12.0,0.,12.0
1979-07-01 15:37:18.450 ,7,1,0.,12.0,0.,12.0,0.,12.0,0.,12.0
1979-07-01 15:37:30.450 ,7,1,0.,12.0,0.,12.0,0.,12.0,0.,12.0
1979-07-01 15:37:42.450 ,3,1,0.,12.0,0.,12.0,0.,12.0,0.,12.0
1979-07-01 15:37:54.450 ,3,1,0.,12.0,0.,12.0,0.,12.0,0.,12.0
1979-07-01 15:38:06.450 ,0,1,0.,12.0,0.,12.0,0.,12.0,0.,12.0
1979-07-01 15:38:18.450 ,0,1,0.,12.0,0.,12.0,0.,12.0,0.,12.0
1979-07-01 15:38:30.450 ,4,1,0.,12.0,0.,12.0,0.,12.0,0.,12.0
1979-07-01 15:38:42.450 ,4,1,0.,12.0,0.,12.0,0.,12.0,0.,12.0
1979-07-01 15:38:54.450 ,7,1,0.,12.0,0.,12.0,0.,12.0,0.,12.0
1979-07-01 15:39:06.450 ,7,1,0.,12.0,0.,12.0,0.,12.0,0.,12.0
1979-07-01 15:39:18.450 ,3,1,0.,12.0,0.,12.0,0.,12.0,0.,12.0
1979-07-01 15:39:30.450 ,3,1,0.,12.0,0.,12.0,0.,12.0,0.,12.0
1979-07-01 15:39:42.450 ,0,1,0.,12.0,0.,12.0,0.,12.0,0.,12.0
1979-07-01 15:39:54.450 ,0,1,0.,12.0,0.,12.0,0.,12.0,0.,12.0
1979-07-01 15:40:06.450 ,4,1,0.,12.0,0.,12.0,0.,12.0,0.,12.0
1979-07-01 15:40:18.450 ,4,1,0.,12.0,0.,12.0,0.,12.0,0.,12.0
1979-07-01 15:40:30.450 ,7,1,0.,12.0,0.,12.0,0.,12.0,0.,12.0
1979-07-01 15:40:42.450 ,7,1,0.,12.0,0.,12.0,0.,12.0,0.,12.0
1979-07-01 15:40:54.450 ,3,1,0.,12.0,0.,12.0,0.,12.0,0.,12.0
1979-07-01 15:41:06.450 ,3,1,0.,12.0,0.,12.0,0.,12.0,0.,12.0
1979-07-01 15:41:18.450 ,0,1,0.,12.0,0.,12.0,0.,12.0,0.,12.0
1979-07-01 15:41:30.450 ,0,1,0.,12.0,0.,12.0,0.,12.0,0.,12.0
1979-07-01 15:41:42.450 ,0,0,0.,12.0,0.,12.0,0.,12.0,0.,12.0
1979-07-01 15:41:54.450 ,0,0,0.,12.0,0.,12.0,0.,12.0,0.,12.0
1979-07-01 15:42:06.450 ,0,0,0.,12.0,0.,12.0,0.,12.0,0.,12.0
1979-07-01 15:42:18.450 ,0,0,0.,12.0,0.,12.0,0.,12.0,0.,12.0
1979-07-01 15:42:30.450 ,5,0,0.,12.0,0.,12.0,0.,12.0,0.,12.0
1979-07-01 15:42:42.450 ,5,0,0.,12.0,0.,12.0,0.,12.0,0.,12.0
1979-07-01 15:42:54.450 ,5,0,0.,12.0,0.,12.0,0.,12.0,0.,12.0
1979-07-01 15:43:06.450 ,5,0,0.,12.0,0.,12.0,0.,12.0,0.,12.0
1979-07-01 15:43:18.450 ,4,0,0.,12.0,0.,12.0,0.,12.0,0.,12.0
1979-07-01 15:43:30.450 ,4,0,0.,12.0,0.,12.0,0.,12.0,0.,12.0
1979-07-01 15:43:42.450 ,4,0,0.,12.0,0.,12.0,0.,12.0,0.,12.0
1979-07-01 15:43:54.450 ,4,0,0.,12.0,0.,12.0,0.,12.0,0.,12.0
1979-07-01 15:44:06.450 ,3,0,0.,12.0,0.,12.0,0.,12.0,0.,12.0
1979-07-01 15:44:18.450 ,3,0,0.,12.0,0.,12.0,0.,12.0,0.,12.0
1979-07-01 15:44:30.450 ,3,0,0.,12.0,0.,12.0,0.,12.0,0.,12.0
1979-07-01 15:44:42.450 ,3,0,0.,12.0,0.,12.0,0.,12.0,0.,12.0
1979-07-01 15:44:54.450 ,2,0,0.,12.0,0.,12.0,0.,12.0,0.,12.0
1979-07-01 15:45:06.450 ,2,0,0.,12.0,0.,12.0,0.,12.0,0.,12.0
1979-07-01 15:45:18.450 ,2,0,0.,12.0,0.,12.0,0.,12.0,0.,12.0
1979-07-01 15:45:30.450 ,2,0,0.,12.0,0.,12.0,0.,12.0,0.,12.0
1979-07-01 15:45:42.450 ,1,0,0.,12.0,0.,12.0,0.,12.0,0.,12.0
1979-07-01 15:45:54.450 ,1,0,0.,12.0,0.,12.0,0.,12.0,0.,12.0
1979-07-01 15:46:06.450 ,1,0,0.,12.0,0.,12.0,0.,12.0,0.,12.0
1979-07-01 15:46:18.450 ,1,0,0.,12.0,0.,12.0,0.,12.0,0.,12.0
1979-07-01 15:46:30.450 ,0,0,0.,12.0,0.,12.0,0.,12.0,0.,12.0
1979-07-01 15:46:42.450 ,0,0,0.,12.0,0.,12.0,0.,12.0,0.,12.0
1979-07-01 15:46:54.450 ,0,0,0.,12.0,0.,12.0,0.,12.0,0.,12.0
1979-07-01 15:47:06.450 ,0,0,0.,12.0,0.,12.0,0.,12.0,0.,12.0
1979-07-01 15:47:18.450 ,0,0,0.,12.0,0.,12.0,0.,12.0,0.,12.0
1979-07-01 15:47:30.450 ,0,0,0.,12.0,0.,12.0,0.,12.0,0.,12.0
1979-07-01 15:47:42.450 ,0,0,0.,12.0,0.,12.0,0.,12.0,0.,12.0
1979-07-01 15:47:54.450 ,0,0,0.,12.0,0.,12.0,0.,12.0,0.,12.0
1979-07-01 15:48:06.450 ,1,0,0.,12.0,0.,12.0,0.,12.0,0.,12.0
1979-07-01 15:48:18.450 ,1,0,0.,12.0,0.,12.0,0.,12.0,0.,12.0
1979-07-01 15:48:30.450 ,1,0,0.,12.0,0.,12.0,0.,12.0,0.,12.0
1979-07-01 15:48:42.450 ,1,0,0.,12.0,0.,12.0,0.,12.0,0.,12.0
1979-07-01 15:48:54.450 ,2,0,0.,12.0,0.,12.0,0.,12.0,0.,12.0
1979-07-01 15:49:06.450 ,2,0,0.,12.0,0.,12.0,0.,12.0,0.,12.0
1979-07-01 15:49:18.450 ,2,0,0.,12.0,0.,12.0,0.,12.0,0.,12.0
1979-07-01 15:49:30.450 ,2,0,0.,12.0,0.,12.0,0.,12.0,0.,12.0
1979-07-01 15:49:42.450 ,3,0,0.,12.0,0.,12.0,0.,12.0,0.,12.0
1979-07-01 15:49:54.450 ,3,0,0.,12.0,0.,12.0,0.,12.0,0.,12.0
1979-07-01 15:50:06.450 ,3,0,0.,12.0,0.,12.0,0.,12.0,0.,12.0
1979-07-01 15:50:18.450 ,3,0,0.,12.0,0.,12.0,0.,12.0,0.,12.0
1979-07-01 15:50:30.450 ,4,0,0.,12.0,0.,12.0,0.,12.0,0.,12.0
1979-07-01 15:50:42.450 ,4,0,0.,12.0,0.,12.0,0.,12.0,0.,12.0
1979-07-01 15:50:54.450 ,4,0,0.,12.0,0.,12.0,0.,12.0,0.,12.0
1979-07-01 15:51:06.450 ,4,0,0.,12.0,0.,12.0,0.,12.0,0.,12.0
1979-07-01 15:51:18.450 ,5,0,0.,12.0,0.,12.0,0.,12.0,0.,12.0
1979-07-01 15:51:30.450 ,5,0,0.,12.0,0.,12.0,0.,12.0,0.,12.0
1979-07-01 15:51:42.450 ,5,0,0.,12.0,0.,12.0,0.,12.0,0.,12.0
1979-07-01 15:51:54.450 ,5,0,0.,12.0,0.,12.0,0.,12.0,0.,12.0
1979-07-01 15:52:06.450 ,6,0,0.,12.0,0.,12.0,0.,12.0,0.,12.0
1979-07-01 15:52:18.450 ,6,0,0.,12.0,0.,12.0,0.,12.0,0.,12.0
1979-07-01 15:52:30.450 ,6,0,0.,12.0,0.,12.0,0.,12.0,0.,12.0
1979-07-01 15:52:42.450 ,6,0,0.,12.0,0.,12.0,0.,12.0,0.,12.0
1979-07-01 15:52:54.450 ,7,0,0.,12.0,0.,12.0,0.,12.0,0.,12.0
1979-07-01 15:53:06.450 ,7,0,0.,12.0,0.,12.0,0.,12.0,0.,12.0
1979-07-01 15:53:18.450 ,7,0,0.,12.0,0.,12.0,0.,12.0,0.,12.0
1979-07-01 15:53:30.450 ,7,0,0.,12.0,0.,12.0,0.,12.0,0.,12.0
1979-07-01 15:53:42.450 ,7,0,0.,12.0,0.,12.0,0.,12.0,0.,12.0
1979-07-01 15:53:54.450 ,7,0,0.,12.0,0.,12.0,0.,12.0,0.,12.0
1979-07-01 15:54:06.450 ,7,0,0.,12.0,0.,12.0,0.,12.0,0.,12.0
1979-07-01 15:54:18.450 ,7,0,0.,12.0,0.,12.0,0.,12.0,0.,12.0
1979-07-01 15:54:30.450 ,6,0,0.,12.0,0.,12.0,0.,12.0,0.,12.0
1979-07-01 15:54:42.450 ,6,0,0.,12.0,0.,12.0,0.,12.0,0.,12.0
1979-07-01 15:54:54.450 ,6,0,0.,12.0,0.,12.0,0.,12.0,0.,12.0
1979-07-01 15:55:06.450 ,6,0,0.,12.0,0.,12.0,0.,12.0,0.,12.0
1979-07-01 15:55:18.450 ,5,0,0.,12.0,0.,12.0,0.,12.0,0.,12.0
1979-07-01 15:55:30.450 ,5,0,0.,12.0,0.,12.0,0.,12.0,0.,12.0
1979-07-01 15:55:42.450 ,5,0,0.,12.0,0.,12.0,0.,12.0,0.,12.0
1979-07-01 15:55:54.450 ,5,0,0.,12.0,0.,12.0,0.,12.0,0.,12.0
1979-07-01 15:56:06.450 ,4,0,0.,12.0,0.,12.0,0.,12.0,0.,12.0
1979-07-01 15:56:18.450 ,4,0,0.,12.0,0.,12.0,0.,12.0,0.,12.0
1979-07-01 15:56:30.450 ,4,0,0.,12.0,0.,12.0,0.,12.0,0.,12.0
1979-07-01 15:56:42.450 ,4,0,0.,12.0,0.,12.0,0.,12.0,0.,12.0
1979-07-01 15:56:54.450 ,3,0,0.,12.0,0.,12.0,0.,12.0,0.,12.0
1979-07-01 15:57:06.450 ,3,0,0.,12.0,0.,12.0,0.,12.0,0.,12.0
1979-07-01 15:57:18.450 ,3,0,0.,12.0,0.,12.0,0.,12.0,0.,12.0
1979-07-01 15:57:30.450 ,3,0,0.,12.0,0.,12.0,0.,12.0,0.,12.0
1979-07-01 15:57:42.450 ,2,0,0.,12.0,0.,12.0,0.,12.0,0.,12.0
1979-07-01 15:57:54.450 ,2,0,0.,12.0,0.,12.0,0.,12.0,0.,12.0
1979-07-01 15:58:06.450 ,2,0,0.,12.0,0.,12.0,0.,12.0,0.,12.0
1979-07-01 15:58:18.450 ,2,0,0.,12.0,0.,12.0,0.,12.0,0.,12.0
1979-07-01 15:58:30.450 ,1,0,0.,12.0,0.,12.0,0.,12.0,0.,12.0
1979-07-01 15:58:42.450 ,1,0,0.,12.0,0.,12.0,0.,12.0,0.,12.0
1979-07-01 15:58:54.450 ,1,0,0.,12.0,0.,12.0,0.,12.0,0.,12.0
1979-07-01 15:59:06.450 ,1,0,0.,12.0,0.,12.0,0.,12.0,0.,12.0
1979-07-01 15:59:18.450 ,0,0,0.,12.0,0.,12.0,0.,12.0,0.,12.0
1979-07-01 15:59:30.450 ,0,0,0.,12.0,0.,12.0,0.,12.0,0.,12.0
1979-07-01 15:59:42.450 ,0,0,0.,12.0,0.,12.0,0.,12.0,0.,12.0
1979-07-01 15:59:54.450 ,0,0,0.,12.0,0.,12.0,0.,12.0,0.,12.0
1979-07-01 16:00:06.450 ,0,0,0.,12.0,0.,12.0,0.,12.0,0.,12.0
1979-07-01 16:00:18.450 ,0,0,0.,12.0,0.,12.0,0.,12.0,0.,12.0
1979-07-01 16:00:30.450 ,0,0,0.,12.0,0.,12.0,0.,12.0,0.,12.0
1979-07-01 16:00:42.450 ,0,0,0.,12.0,0.,12.0,0.,12.0,0.,12.0
1979-07-01 16:00:54.450 ,1,0,0.,12.0,0.,12.0,0.,12.0,0.,12.0
1979-07-01 16:01:06.450 ,1,0,0.,12.0,0.,12.0,0.,12.0,0.,12.0
1979-07-01 16:01:18.450 ,1,0,0.,12.0,0.,12.0,0.,12.0,0.,12.0
1979-07-01 16:01:30.450 ,1,0,0.,12.0,0.,12.0,0.,12.0,0.,12.0
1979-07-01 16:01:42.450 ,2,0,0.,12.0,0.,12.0,0.,12.0,0.,12.0
1979-07-01 16:01:54.450 ,2,0,0.,12.0,0.,12.0,0.,12.0,0.,12.0
1979-07-01 16:02:06.450 ,2,0,0.,12.0,0.,12.0,0.,12.0,0.,12.0
1979-07-01 16:02:18.450 ,2,0,0.,12.0,0.,12.0,0.,12.0,0.,12.0
1979-07-01 16:02:30.450 ,3,0,0.,12.0,0.,12.0,0.,12.0,0.,12.0
1979-07-01 16:02:42.450 ,3,0,0.,12.0,0.,12.0,0.,12.0,0.,12.0
1979-07-01 16:02:54.450 ,3,0,0.,12.0,0.,12.0,0.,12.0,0.,12.0
1979-07-01 16:03:06.450 ,3,0,0.,12.0,0.,12.0,0.,12.0,0.,12.0
1979-07-01 16:03:18.450 ,4,0,0.,12.0,0.,12.0,0.,12.0,0.,12.0
1979-07-01 16:03:30.450 ,4,0,0.,12.0,0.,12.0,0.,12.0,0.,12.0
1979-07-01 16:03:42.450 ,4,0,0.,12.0,0.,12.0,0.,12.0,0.,12.0
1979-07-01 16:03:54.450 ,4,0,0.,12.0,0.,12.0,0.,12.0,0.,12.0
1979-07-01 16:04:06.450 ,5,0,0.,12.0,0.,12.0,0.,12.0,0.,12.0
1979-07-01 16:04:18.450 ,5,0,0.,12.0,0.,12.0,0.,12.0,0.,12.0
1979-07-01 16:04:30.450 ,5,0,0.,12.0,0.,12.0,0.,12.0,0.,12.0
1979-07-01 16:04:42.450 ,5,0,0.,12.0,0.,12.0,0.,12.0,0.,12.0
1979-07-01 16:04:54.450 ,6,0,0.,12.0,0.,12.0,0.,12.0,0.,12.0
1979-07-01 16:05:06.450 ,6,0,0.,12.0,0.,12.0,0.,12.0,0.,12.0
1979-07-01 16:05:18.450 ,6,0,0.,12.0,0.,12.0,0.,12.0,0.,12.0
1979-07-01 16:05:30.450 ,6,0,0.,12.0,0.,12.0,0.,12.0,0.,12.0
1979-07-01 16:05:42.450 ,7,0,0.,12.0,0.,12.0,0.,12.0,0.,12.0
1979-07-01 16:05:54.450 ,7,0,0.,12.0,0.,12.0,0.,12.0,0.,12.0
1979-07-01 16:06:06.450 ,7,0,0.,12.0,0.,12.0,0.,12.0,0.,12.0
1979-07-01 16:06:18.450 ,7,0,0.,12.0,0.,12.0,0.,12.0,0.,12.0
1979-07-01 16:06:30.450 ,7,0,0.,12.0,0.,12.0,0.,12.0,0.,12.0
1979-07-01 16:06:42.450 ,7,0,0.,12.0,0.,12.0,0.,12.0,0.,12.0
1979-07-01 16:06:54.450 ,7,0,0.,12.0,0.,12.0,0.,12.0,0.,12.0
1979-07-01 16:07:06.450 ,7,0,0.,12.0,0.,12.0,0.,12.0,0.,12.0
1979-07-01 16:07:18.450 ,6,0,0.,12.0,0.,12.0,0.,12.0,0.,12.0
1979-07-01 16:07:30.450 ,6,0,0.,12.0,0.,12.0,0.,12.0,0.,12.0
1979-07-01 16:07:42.450 ,6,0,0.,12.0,0.,12.0,0.,12.0,0.,12.0
1979-07-01 16:07:54.450 ,6,0,0.,12.0,0.,12.0,0.,12.0,0.,12.0
1979-07-01 16:08:06.450 ,5,0,0.,12.0,0.,12.0,0.,12.0,0.,12.0
1979-07-01 16:08:18.450 ,5,0,0.,12.0,0.,12.0,0.,12.0,0.,12.0
1979-07-01 16:08:30.450 ,5,0,0.,12.0,0.,12.0,0.,12.0,0.,12.0
1979-07-01 16:08:42.450 ,5,0,0.,12.0,0.,12.0,0.,12.0,0.,12.0
1979-07-01 16:08:54.450 ,4,0,0.,12.0,0.,12.0,0.,12.0,0.,12.0
1979-07-01 16:09:06.450 ,4,0,0.,12.0,0.,12.0,0.,12.0,0.,12.0
1979-07-01 16:09:18.450 ,4,0,0.,12.0,0.,12.0,0.,12.0,0.,12.0
1979-07-01 16:09:30.450 ,4,0,0.,12.0,0.,12.0,0.,12.0,0.,12.0
1979-07-01 16:09:42.450 ,3,0,0.,12.0,0.,12.0,0.,12.0,0.,12.0
1979-07-01 16:09:54.450 ,3,0,0.,12.0,0.,12.0,0.,12.0,0.,12.0
1979-07-01 16:10:06.450 ,3,0,0.,12.0,0.,12.0,0.,12.0,0.,12.0
1979-07-01 16:10:18.450 ,3,0,0.,12.0,0.,12.0,0.,12.0,0.,12.0
1979-07-01 16:10:30.450 ,2,0,0.,12.0,0.,12.0,0.,12.0,0.,12.0
1979-07-01 16:10:42.450 ,2,0,0.,12.0,0.,12.0,0.,12.0,0.,12.0
1979-07-01 16:10:54.450 ,2,0,0.,12.0,0.,12.0,0.,12.0,0.,12.0
1979-07-01 16:11:06.450 ,2,0,0.,12.0,0.,12.0,0.,12.0,0.,12.0
1979-07-01 16:11:18.450 ,1,0,0.,12.0,0.,12.0,0.,12.0,0.,12.0
1979-07-01 16:11:30.450 ,1,0,0.,12.0,0.,12.0,0.,12.0,0.,12.0
1979-07-01 16:11:42.450 ,1,0,0.,12.0,0.,12.0,0.,12.0,0.,12.0
1979-07-01 16:11:54.450 ,1,0,0.,12.0,0.,12.0,0.,12.0,0.,12.0
1979-07-01 16:12:06.450 ,0,0,0.,12.0,0.,12.0,0.,12.0,0.,12.0
1979-07-01 16:12:18.450 ,0,0,0.,12.0,0.,12.0,0.,12.0,0.,12.0
1979-07-01 16:12:30.450 ,0,0,0.,12.0,0.,12.0,0.,12.0,0.,12.0
1979-07-01 16:12:42.450 ,0,0,0.,12.0,0.,12.0,0.,12.0,0.,12.0
1979-07-01 16:12:54.450 ,0,0,0.,12.0,0.,12.0,0.,12.0,0.,12.0
1979-07-01 16:13:06.450 ,0,0,0.,12.0,0.,12.0,0.,12.0,0.,12.0
1979-07-01 16:13:18.450 ,0,0,0.,12.0,0.,12.0,0.,12.0,0.,12.0
1979-07-01 16:13:30.450 ,0,0,0.,12.0,0.,12.0,0.,12.0,0.,12.0
1979-07-01 16:13:42.450 ,1,0,0.,12.0,0.,12.0,0.,12.0,0.,12.0
1979-07-01 16:13:54.450 ,1,0,0.,12.0,0.,12.0,0.,12.0,0.,12.0
1979-07-01 16:14:06.450 ,1,0,0.,12.0,0.,12.0,0.,12.0,0.,12.0
1979-07-01 16:14:18.450 ,1,0,0.,12.0,0.,12.0,0.,12.0,0.,12.0
1979-07-01 16:14:30.450 ,2,0,0.,12.0,0.,12.0,0.,12.0,0.,12.0
1979-07-01 16:14:42.450 ,2,0,0.,12.0,0.,12.0,0.,12.0,0.,12.0
1979-07-01 16:14:54.450 ,2,0,0.,12.0,0.,12.0,0.,12.0,0.,12.0
1979-07-01 16:15:06.450 ,2,0,0.,12.0,0.,12.0,0.,12.0,0.,12.0
1979-07-01 16:15:18.450 ,3,0,0.,12.0,0.,12.0,0.,12.0,0.,12.0
1979-07-01 16:15:30.450 ,3,0,0.,12.0,0.,12.0,0.,12.0,0.,12.0
1979-07-01 16:15:42.450 ,3,0,0.,12.0,0.,12.0,0.,12.0,0.,12.0
1979-07-01 16:15:54.450 ,3,0,0.,12.0,0.,12.0,0.,12.0,0.,12.0
1979-07-01 16:16:06.450 ,4,0,0.,12.0,0.,12.0,0.,12.0,0.,12.0
1979-07-01 16:16:18.450 ,4,0,0.,12.0,0.,12.0,0.,12.0,0.,12.0
1979-07-01 16:16:30.450 ,4,0,0.,12.0,0.,12.0,0.,12.0,0.,12.0
1979-07-01 16:16:42.450 ,4,0,0.,12.0,1.,12.0,0.,12.0,0.,12.0
1979-07-01 16:16:54.450 ,5,0,0.,12.0,0.,12.0,0.,12.0,0.,12.0
1979-07-01 16:17:06.450 ,5,0,0.,12.0,0.,12.0,0.,12.0,0.,12.0
1979-07-01 16:17:18.450 ,5,0,0.,12.0,0.,12.0,0.,12.0,0.,12.0
1979-07-01 16:17:30.450 ,5,0,0.,12.0,0.,12.0,0.,12.0,0.,12.0